Hourly Weather Roundup
Issued by NWS Central Illinois

Home | Current Version | Previous Version | Text Only | Print | Product List | Glossary On
Versions: 1 2 3 4 5 6 7 8 9 10 11 12 13 14 15 16 17 18 19 20 21 22 23 24 25 26 27 28 29 30 31 32 33 34 35 36 37 38 39 40 41 42 43 44 45 46 47 48 49 50
000
NZUS43 KILX 300110
HWRILX

AREA WEATHER ROUNDUP
NATIONAL WEATHER SERVICE, LINCOLN IL
800 PM CDT TUE JUL 29 2014


CITY           SKY/WX    TMP DP  RH WIND       PRES   REMARKS
BLOOMINGTON    PTCLDY    71  55  56 W7        30.06S
CHAMPAIGN      CLEAR     67  61  81 W7        30.05S
DECATUR        CLEAR     73  56  54 W5        30.06S
FLORA          CLEAR     68  56  66 CALM      30.06F
GALESBURG      CLEAR     72  62  69 W3        30.06S
JACKSONVILLE   CLEAR     71  63  75 CALM      30.08S
LACON          CLEAR     74  56  54 W3        30.03S
LAWRENCEVILLE  CLEAR     71  59  65 NW3       30.05
LITCHFIELD     CLEAR     69  59  69 NW3       30.07F
$$


CITY           SKY/WX    TMP DP  RH WIND       PRES   REMARKS
LINCOLN        CLEAR     74  57  55 CALM      30.03S
MACOMB         CLEAR     69  63  82 W5        30.08S
MATTOON        CLEAR     69  56  62 W5        30.05S
MT CARMEL AP   CLEAR     70  64  83 CALM      30.06R
OLNEY-NOBLE AP CLEAR     64  63  94 CALM      30.06S
PARIS          CLEAR     67  60  76 W5        30.06R
PEORIA         CLEAR     74  57  55 W5        30.05S
PONTIAC        PTCLDY    68  63  83 CALM      30.03F
RANTOUL        CLEAR     70  59  67 W6        30.05S
ROBINSON       CLEAR     71  59  66 CALM      30.06S
SPRINGFIELD    CLEAR     71  62  73 W5        30.06F
TAYLORVILLE    CLEAR     68  59  73 W3        30.06F
$$

...REGIONAL REPORTS...


CITY           SKY/WX    TMP DP  RH WIND       PRES   REMARKS
CHICAGO O`HARE MOCLDY    73  56  54 W9        29.99R
KANKAKEE       PTCLDY    65  57  76 W6        30.03S
MOLINE         CLEAR     74  57  55 W6        30.03S
MOUNT VERNON   CLEAR     72  55  56 CALM      30.07F
PITTSFIELD     CLEAR     72  61  68 CALM      30.08F
QUINCY         CLEAR     73  56  54 CALM      30.07F
ROCKFORD       MOCLDY    72  52  49 NW8       30.03R
$$


CITY           SKY/WX    TMP DP  RH WIND       PRES   REMARKS
BURLINGTON     CLEAR     72  60  66 W3        30.06S
CEDAR RAPIDS   PTCLDY    69  58  67 W7        30.05S
DES MOINES     PTCLDY    75  54  47 NW8       30.07F
KIRKSVILLE     CLEAR     72  61  68 CALM      30.09F
OTTUMWA        CLEAR     71  59  65 NW5       30.07F
ST LOUIS       PTCLDY    75  56  51 N6        30.08S
$$


CITY           SKY/WX    TMP DP  RH WIND       PRES   REMARKS
TERRE HAUTE    CLEAR     69  57  65 W5        30.05R
EVANSVILLE     CLEAR     73  56  54 CALM      30.06F
INDIANAPOLIS   LGT RAIN  62  59  90 W3        30.06R
LAFAYETTE      RAIN      64  62  93 N10       30.04R
MADISON        CLOUDY    65  58  78 VRB6      30.03R
MILWAUKEE      MOCLDY    65  56  72 NE13      29.99R
$$




USA.gov is the U.S. government's official web portal to all federal, state and local government web resources and services.